Stations météo

Publicité
Gueret-St Laurent, France (7361): Température de l'air & dewpoint: 18.01.2019 11:00:00 - 24.01.2019 11:00:00 (CET)Gueret-St Laurent, France (7361): Température de l'air 5cm: 18.01.2019 11:00:00 - 24.01.2019 11:00:00 (CET)Gueret-St Laurent, France (7361): Température de l'air -20cm & Température de l'air -100cm: 18.01.2019 11:00:00 - 24.01.2019 11:00:00 (CET)Gueret-St Laurent, France (7361): Vitesse du vent & gusts: 18.01.2019 11:00:00 - 24.01.2019 11:00:00 (CET)Gueret-St Laurent, France (7361): Direction du vent: 18.01.2019 11:00:00 - 24.01.2019 11:00:00 (CET)Gueret-St Laurent, France (7361): reduced air pressure: 18.01.2019 11:00:00 - 24.01.2019 11:00:00 (CET)Gueret-St Laurent, France (7361): visibility: 18.01.2019 11:00:00 - 24.01.2019 11:00:00 (CET)Gueret-St Laurent, France (7361): Ensoleillement: 18.01.2019 11:00:00 - 24.01.2019 11:00:00 (CET)Gueret-St Laurent, France (7361): Quantités de précipitations: 18.01.2019 11:00:00 - 24.01.2019 11:00:00 (CET)
Date & Time tt [°C] td [°C] tt 5cm [°C] tt -20cm [°C] tt -100cm [°C] ff [km/h] ff [knt] fx [km/h] fx [knt] dd ppp [hPa] vv [km] sd [min] rr [mm]
24.01.2019 11:00:00 -1,3 -3,0 -1,3 4,4 8,2 10 5 28 15 NNW 1013,1 17 0 0,0
24.01.2019 10:00:00 -1,6 -3,5 -1,6 4,5 8,2 12 6 28 15 NNW 1013,0 19 0 0,0
24.01.2019 09:00:00 -1,6 -2,7 -2,0 4,5 8,2 6 3 13 7 NW 1012,2 10 0 0,0
24.01.2019 08:00:00 -1,5 -3,1 -1,9 4,4 8,2 3 2 15 8 WNW 1011,5 13 0 0,0
24.01.2019 07:00:00 -1,4 -3,0 -1,8 4,5 8,2 5 3 16 9 NW 1010,9 14 0 0,0
24.01.2019 06:00:00 -1,1 -2,7 -1,4 4,5 8,2 6 3 14 8 NW 1010,3 13 0 0,0
24.01.2019 05:00:00 -1,0 -2,6 -1,4 4,5 8,2 6 3 25 13 NNW 1010,0 14 0 0,0
24.01.2019 04:00:00 -0,8 -2,1 -1,3 4,5 8,2 6 3 14 8 NW 1009,6 11 0 0,0
24.01.2019 03:00:00 -0,8 -2,1 -1,3 4,5 8,2 5 3 14 7 NW 1009,0 14 0 0,0
24.01.2019 02:00:00 -0,8 -2,4 -1,4 4,5 8,2 5 3 19 11 NW 1008,1 18 0 0,0
24.01.2019 01:00:00 -0,7 -2,3 -1,1 4,5 8,2 9 5 25 14 NNW 1007,5 20 0 0,0
24.01.2019 00:00:00 -0,6 -1,9 -1,0 4,5 8,2 11 6 31 17 NNW 1006,5 18 0 0,2
23.01.2019 23:00:00 -0,6 -1,7 -1,0 4,5 8,3 19 10 33 18 N 1005,3 18 0 0,2
23.01.2019 22:00:00 -0,8 -1,6 -1,0 4,5 8,3 7 4 29 16 NW 1004,6 2,6 0 0,2
23.01.2019 21:00:00 -0,6 -1,6 -0,8 4,5 8,3 16 9 44 24 NNW 1003,8 5 0 0,4
23.01.2019 20:00:00 0,1 -0,8 -0,1 4,5 8,3 16 9 40 22 NNW 1002,7 1,0 0 0,0
23.01.2019 19:00:00 0,4 -0,9 -0,1 4,5 8,3 12 7 31 17 WNW 1001,8 2,6 0 0,0
23.01.2019 18:00:00 0,4 -1,2 -0,1 4,5 8,3 9 5 31 17 NW 1001,3 20 0 0,0
23.01.2019 17:00:00 0,2 -1,2 -0,2 4,4 8,3 7 4 32 18 WNW 1000,8 20 0 0,2
23.01.2019 16:00:00 2,5 -1,9 1,8 4,4 8,3 10 5 28 15 WNW 999,6 13 23 0,4
23.01.2019 15:00:00 2,0 -1,4 0,9 4,4 8,3 10 5 32 17 NW 999,6 20 11 0,0
23.01.2019 14:00:00 2,8 -1,6 3,1 4,5 8,3 13 7 31 17 NW 999,3 20 10 0,0
23.01.2019 13:00:00 2,7 0,3 2,0 4,4 8,3 12 6 22 12 NW 999,1 20 24 0,0
23.01.2019 12:00:00 1,2 0,3 0,9 4,5 8,4 8 5 19 11 NW 999,3 20 0 0,0
23.01.2019 11:00:00 0,6 -0,1 0,1 4,5 8,3 6 4 14 8 WNW 999,0 20 0 0,0
23.01.2019 10:00:00 0,4 -0,2 0,1 4,5 8,3 5 3 13 7 W 998,3 20 0 0,6
23.01.2019 09:00:00 0,4 -0,2 0,1 4,5 8,4 5 3 13 7 WNW 997,9 2,6 0 0,8
23.01.2019 08:00:00 0,5 -0,1 0,1 4,5 8,4 3 1 12 7 WNW 997,1 18 0 1,2
23.01.2019 07:00:00 1,6 0,9 1,0 4,5 8,4 0 0 14 7 N 996,5 9 0 0,8
23.01.2019 06:00:00 1,8 0,9 0,9 4,5 8,4 4 2 15 8 WSW 997,4 20 0 0,0
23.01.2019 05:00:00 1,9 1,0 1,3 4,5 8,4 6 3 21 11 WSW 998,3 16 0 0,0
23.01.2019 04:00:00 1,8 0,8 0,9 4,5 8,4 6 3 21 12 WSW 998,8 20 0 0,2
23.01.2019 03:00:00 1,8 0,8 0,8 4,5 8,4 8 4 21 12 SW 999,6 19 0 0,0
23.01.2019 02:00:00 1,5 0,3 0,4 4,6 8,4 12 7 28 15 SW 1000,7 16 0 0,2
23.01.2019 01:00:00 1,3 0,3 0,4 4,6 8,4 4 2 14 7 SSW 1001,5 20 0 0,2
23.01.2019 00:00:00 1,3 0,4 0,1 4,6 8,4 5 3 15 8 S 1002,5 16 0 0,2
22.01.2019 23:00:00 1,0 0,3 -0,5 4,6 8,4 6 3 13 7 SE 1003,5 17 0 0,0
22.01.2019 22:00:00 -0,1 -0,7 -0,9 4,6 8,4 5 3 11 6 ESE 1004,8 9 0 0,0
22.01.2019 21:00:00 -0,1 -0,8 -1,2 4,7 8,4 5 3 8 5 E 1006,0 9 0 0,0
22.01.2019 20:00:00 -0,1 -1,1 -1,1 4,7 8,4 3 2 11 6 SE 1006,5 11 0 0,0
22.01.2019 19:00:00 0,3 -0,8 -0,8 4,7 8,4 3 2 16 9 W 1007,1 19 0 0,0
22.01.2019 18:00:00 0,5 -1,0 -0,4 4,7 8,4 3 1 19 11 W 1007,0 20 0 0,0
22.01.2019 17:00:00 0,8 -0,8 0,6 4,8 8,4 5 3 17 9 W 1006,8 20 0 0,2
22.01.2019 16:00:00 0,8 -0,4 0,2 4,8 8,4 4 2 21 11 SW 1006,8 5 0 0,2
22.01.2019 15:00:00 0,8 -0,4 0,2 4,9 8,4 3 2 31 17 NNW 1007,0 2,5 0 0,4
22.01.2019 14:00:00 1,5 -0,1 0,4 4,9 8,4 16 9 29 16 S 1007,5 11 0 0,2
22.01.2019 13:00:00 1,9 -0,5 1,5 5,0 8,4 12 7 28 15 S 1008,7 20 0 0,0
22.01.2019 12:00:00 1,3 -0,6 -0,2 5,1 8,5 12 7 34 18 S 1010,0 17 0 0,0
22.01.2019 11:00:00 -0,5 -1,8 -1,3 5,1 8,4 8 4 16 9 ESE 1011,4 16 0 0,0
22.01.2019 10:00:00 -1,6 -2,7 -2,8 5,1 8,4 8 4 19 11 ESE 1012,6 13 0 0,0
22.01.2019 09:00:00 -2,9 -3,9 -4,2 5,2 8,4 2 1 11 6 ESE 1014,1 9 0 0,0
22.01.2019 08:00:00 -2,9 -4,3 -6,0 5,3 8,4 7 4 13 7 ESE 1014,8 15 0 0,0
22.01.2019 07:00:00 -3,0 -4,3 -7,4 5,3 8,4 5 3 19 10 SE 1015,8 16 0 0,0
22.01.2019 06:00:00 -3,6 -4,0 -9,1 5,4 8,4 5 3 13 7 SSW 1017,0 13 0 0,0
22.01.2019 05:00:00 -5,9 -6,7 -9,2 5,4 8,4 3 2 7 4 E 1018,0 8 0 0,0
22.01.2019 04:00:00 -5,8 -6,6 -9,1 5,5 8,4 4 2 10 5 E 1018,7 8 0 0,0
22.01.2019 03:00:00 -6,7 -7,6 -10,3 5,6 8,4 3 1 4 2 NE 1020,6 8 0 0,0
22.01.2019 02:00:00 -6,9 -8,1 -10,0 5,6 8,4 0 0 5 3 N 1021,2 7 0 0,0
22.01.2019 01:00:00 -6,3 -7,4 -9,9 5,6 8,5 4 2 5 3 E 1021,5 5 0 0,0
22.01.2019 00:00:00 -5,9 -7,0 -9,7 5,7 8,4 4 2 5 3 E 1022,0 4,5 0 0,0
21.01.2019 23:00:00 -5,0 -5,8 -9,0 5,7 8,4 3 1 4 2 E 1022,5 2,1 0 0,0
21.01.2019 22:00:00 -4,7 -5,7 -8,6 5,7 8,5 0 0 5 3 N 1022,7 0,5 0 0,0
21.01.2019 21:00:00 -4,0 -4,8 -7,9 5,7 8,5 3 2 5 3 ESE 1022,9 1,8 0 0,0
21.01.2019 20:00:00 -3,5 -4,5 -6,5 5,7 8,5 2 1 3 2 SSE 1022,9 3,1 0 0,0
21.01.2019 19:00:00 -2,6 -3,9 -5,2 5,7 8,5 0 0 4 2 N 1022,9 8 0 0,0
21.01.2019 18:00:00 -1,3 -3,3 -2,9 5,7 8,5 0 0 3 1 N 1022,3 16 2 0,0
21.01.2019 17:00:00 0,4 -3,0 -0,3 5,7 8,5 2 1 10 6 NW 1022,1 20 15 0,0
21.01.2019 16:00:00 0,9 -1,8 1,6 5,7 8,5 5 3 13 7 NNW 1022,4 20 3 0,0
21.01.2019 15:00:00 0,8 -0,8 1,6 5,7 8,5 6 3 16 9 NW 1022,6 14 0 0,0
21.01.2019 14:00:00 0,5 -0,5 1,5 5,7 8,5 4 2 10 6 W 1022,6 9 0 0,0
21.01.2019 13:00:00 0,5 -0,2 1,5 5,8 8,5 4 2 11 6 NW 1022,9 5 0 0,0
21.01.2019 12:00:00 0,7 0,0 1,5 5,8 8,5 6 3 15 8 NNW 1023,2 7 0 0,0
21.01.2019 11:00:00 0,7 0,3 1,2 5,8 8,5 9 5 16 9 N 1023,1 6 0 0,0
21.01.2019 10:00:00 0,9 0,5 1,3 5,8 8,5 9 5 15 8 NNW 1022,3 0,9 0 0,0
21.01.2019 09:00:00 1,2 0,9 1,2 5,8 8,5 3 2 10 6 NNW 1021,7 1,2 0 0,0
21.01.2019 08:00:00 1,1 0,7 1,2 5,8 8,5 5 3 17 9 NNW 1021,5 1,2 0 0,0
21.01.2019 07:00:00 1,3 1,0 1,4 5,8 8,5 6 3 20 11 NNW 1021,1 0,5 0 0,2
21.01.2019 06:00:00 1,6 1,2 1,6 5,8 8,5 13 7 20 11 N 1020,4 2,6 0 0,0
21.01.2019 05:00:00 1,9 1,5 1,9 5,8 8,5 6 3 19 10 NNW 1020,2 0,5 0 0,0
21.01.2019 04:00:00 2,1 1,7 2,1 5,8 8,5 10 5 17 9 N 1019,9 2,4 0 0,0
21.01.2019 03:00:00 2,3 1,9 2,3 5,8 8,5 7 4 15 8 N 1019,9 1,4 0 0,0
21.01.2019 02:00:00 2,6 2,0 2,5 5,8 8,5 7 4 16 8 N 1019,5 4,7 0 0,0
21.01.2019 01:00:00 3,0 2,1 2,6 5,8 8,5 12 6 19 10 N 1019,4 20 0 0,0
21.01.2019 00:00:00 3,3 2,6 2,9 5,7 8,5 10 5 21 11 N 1019,0 13 0 0,2
20.01.2019 23:00:00 3,4 2,8 3,2 5,7 8,5 7 4 13 7 N 1018,2 20 0 0,6
20.01.2019 22:00:00 3,4 2,7 2,9 5,7 8,5 3 2 8 4 NW 1017,5 4,5 0 0,8
20.01.2019 21:00:00 3,3 2,3 2,9 5,7 8,5 6 3 17 9 N 1017,1 12 0 0,4
20.01.2019 20:00:00 3,9 3,0 3,5 5,7 8,5 6 4 17 9 NNW 1016,4 20 0 0,0
20.01.2019 19:00:00 4,1 3,4 3,8 5,6 8,5 3 2 12 6 NW 1015,5 19 0 1,0
20.01.2019 18:00:00 4,6 3,7 4,2 5,6 8,5 4 2 10 5 NW 1014,8 14 0 0,0
20.01.2019 17:00:00 5,0 4,0 4,7 5,6 8,5 4 2 14 7 NNW 1014,1 7 0 0,0
20.01.2019 16:00:00 5,3 4,3 5,4 5,6 8,5 3 2 11 6 W 1013,4 20 0 0,2
20.01.2019 15:00:00 5,0 4,1 4,9 5,5 8,5 4 2 18 10 NW 1013,3 11 0 0,0
20.01.2019 14:00:00 5,4 4,2 5,4 5,5 8,5 6 3 14 7 W 1013,1 8 0 0,0
20.01.2019 13:00:00 5,6 3,9 5,4 5,5 8,6 6 3 14 7 WSW 1013,1 20 0 0,2
20.01.2019 12:00:00 5,4 4,0 5,3 5,5 8,6 4 2 14 8 W 1013,2 10 0 0,8
20.01.2019 11:00:00 5,5 4,3 4,7 5,5 8,6 4 2 11 6 WSW 1012,7 13 21 0,2
20.01.2019 10:00:00 3,4 2,8 2,2 5,5 8,5 5 3 8 5 E 1012,4 20 2 0,2
20.01.2019 09:00:00 3,0 2,3 2,4 5,5 8,6 5 3 10 5 ESE 1011,9 20 0 0,0
20.01.2019 08:00:00 3,0 2,4 2,5 5,5 8,5 8 4 10 5 E 1011,4 20 0 0,0
20.01.2019 07:00:00 3,0 2,3 2,5 5,5 8,6 4 2 9 5 E 1010,9 20 0 0,0
20.01.2019 06:00:00 2,9 2,0 2,5 5,5 8,6 6 3 9 5 E 1010,6 20 0 0,0
20.01.2019 05:00:00 3,1 2,1 2,6 5,5 8,6 5 3 9 5 S 1010,6 20 0 0,0
20.01.2019 04:00:00 3,1 2,1 0,9 5,5 8,6 5 3 15 8 E 1010,6 20 0 0,0
20.01.2019 03:00:00 3,9 1,9 2,1 5,5 8,6 4 2 24 13 SE 1010,3 20 0 0,0
20.01.2019 02:00:00 3,9 2,9 1,7 5,5 8,6 8 5 15 8 SSE 1010,2 20 0 0,0
20.01.2019 01:00:00 2,3 1,6 1,4 5,5 8,6 7 4 13 7 E 1010,7 20 0 1,0
20.01.2019 00:00:00 2,1 1,1 -1,0 5,5 8,6 5 3 8 5 ESE 1010,6 20 0 0,0
19.01.2019 23:00:00 2,4 0,9 -0,8 5,5 8,6 4 2 11 6 E 1010,4 20 0 0,0
19.01.2019 22:00:00 4,0 1,7 0,8 5,5 8,6 5 3 9 5 ESE 1010,0 20 0 0,0
19.01.2019 21:00:00 4,9 2,6 3,9 5,4 8,6 5 3 12 7 S 1010,1 20 0 0,0
19.01.2019 20:00:00 4,8 2,5 3,9 5,4 8,6 8 5 14 8 ESE 1010,1 20 0 0,0
19.01.2019 19:00:00 5,4 2,6 4,1 5,4 8,6 11 6 20 11 S 1010,0 20 0 0,0
19.01.2019 18:00:00 5,2 2,4 4,4 5,4 8,6 3 1 13 7 SE 1010,0 20 0 0,0
19.01.2019 17:00:00 5,5 2,7 5,5 5,4 8,6 6 3 19 10 S 1010,0 20 4 0,0
19.01.2019 16:00:00 5,9 2,7 6,7 5,4 8,6 9 5 29 16 SSW 1010,1 20 30 0,0
19.01.2019 15:00:00 6,0 2,6 6,3 5,4 8,6 12 6 29 16 SSW 1010,3 20 0 0,0
19.01.2019 14:00:00 5,4 2,4 5,7 5,4 8,6 13 7 32 18 S 1011,1 20 0 0,0
19.01.2019 13:00:00 5,5 2,5 5,4 5,4 8,6 15 8 29 16 S 1012,0 20 0 0,0
19.01.2019 12:00:00 5,2 2,4 5,2 5,4 8,6 7 4 19 10 S 1012,6 20 0 0,0
19.01.2019 11:00:00 3,5 1,7 3,2 5,5 8,6 7 4 14 7 E 1013,0 20 0 0,0
19.01.2019 10:00:00 2,4 0,9 0,6 5,5 8,6 8 4 19 10 ESE 1013,2 20 15 0,0
19.01.2019 09:00:00 1,3 -0,2 0,1 5,6 8,6 13 7 20 11 SE 1013,2 20 0 0,0
19.01.2019 08:00:00 0,9 -0,4 -0,6 5,6 8,6 10 5 18 10 SE 1013,5 20 0 0,0
19.01.2019 07:00:00 0,4 -0,7 -1,2 5,7 8,6 9 5 15 8 E 1013,6 20 0 0,0
19.01.2019 06:00:00 -0,3 -1,4 -1,4 5,7 8,6 8 4 16 9 ESE 1014,1 20 0 0,0
19.01.2019 05:00:00 -0,8 -1,8 -2,4 5,8 8,6 9 5 16 9 ESE 1014,6 20 0 0,0
19.01.2019 04:00:00 -1,1 -2,2 -2,2 5,8 8,6 8 4 16 8 E 1015,4 20 0 0,0
19.01.2019 03:00:00 -1,5 -1,9 -5,3 5,9 8,6 8 4 11 6 E 1016,0 20 0 0,0
19.01.2019 02:00:00 -3,0 -4,0 -5,7 5,9 8,6 4 2 11 6 ESE 1016,4 19 0 0,0
19.01.2019 01:00:00 -3,4 -4,2 -6,6 5,9 8,6 8 4 13 7 E 1017,1 19 0 0,0
19.01.2019 00:00:00 -2,8 -3,5 -7,2 6,0 8,6 8 5 13 7 SE 1017,4 19 0 0,0
18.01.2019 23:00:00 -2,8 -3,6 -5,7 6,0 8,6 8 4 11 6 ESE 1017,2 19 0 0,0
18.01.2019 22:00:00 -2,9 -3,4 -7,3 6,0 8,6 7 4 10 6 ESE 1017,4 14 0 0,0
18.01.2019 21:00:00 -3,2 -4,2 -6,6 6,0 8,6 4 2 6 4 ESE 1017,6 7 0 0,0
18.01.2019 20:00:00 -2,3 -3,6 -5,1 6,0 8,6 3 2 5 3 SE 1017,7 10 0 0,0
18.01.2019 19:00:00 -0,1 -2,8 -4,1 6,0 8,6 3 1 8 4 SE 1017,5 20 0 0,0
18.01.2019 18:00:00 2,0 -1,6 -1,4 6,0 8,6 4 2 9 5 SE 1017,3 20 0 0,0
18.01.2019 17:00:00 3,4 -2,8 0,5 6,0 8,6 3 2 8 5 SE 1017,2 20 4 0,0
18.01.2019 16:00:00 5,0 -1,5 5,5 5,9 8,6 4 2 9 5 E 1017,1 20 54 0,0
18.01.2019 15:00:00 4,5 -0,3 7,2 6,0 8,6 5 3 13 7 E 1017,4 20 53 0,0
18.01.2019 14:00:00 3,7 0,2 5,5 6,0 8,6 7 4 13 7 ESE 1017,9 20 23 0,0
18.01.2019 13:00:00 2,7 0,3 3,9 6,0 8,7 6 3 14 7 ESE 1018,8 20 8 0,0
18.01.2019 12:00:00 2,1 0,5 2,9 6,0 8,6 6 3 14 8 SE 1019,7 20 0 0,0
18.01.2019 11:00:00 1,5 0,8 2,0 6,1 8,6 7 4 13 7 E 1020,0 20 0 0,0

tt = Température de l'air
td = dewpoint
tt 5cm = Température de l'air 5cm
tt -20cm = Température de l'air -20cm
tt -100cm = Température de l'air -100cm
ff = Vitesse du vent
fx = gusts
dd = Direction du vent
ppp = reduced air pressure
vv = visibility
sd = Ensoleillement
rr = Quantités de précipitations

stations d'obs. à proximité